Regional Weather Roundup
Issued by NWS

Home | Current Version | Previous Version | Text Only | Print | Product List | Glossary Off
Versions: 1 2 3 4 5 6 7 8 9 10 11 12 13 14 15 16 17 18 19 20 21 22 23 24 25 26 27 28 29 30 31 32 33 34 35 36 37 38 39 40 41 42 43 44 45 46 47 48 49 50

000
ASUS45 KSLC 180610
RWRUT

UTAH REGIONAL WEATHER ROUNDUP
NATIONAL WEATHER SERVICE SALT LAKE CITY UT
1200 AM MDT THU SEP 18 2014

UTZ001>011-023>025-180700-

NORTHERN UTAH

CITY           SKY/WX    TMP DP  RH WIND       PRES   REMARKS
HILL AFB       CLEAR     76  42  30 E14       29.92S
LOGAN          CLEAR     67  46  47 CALM      29.90S
OGDEN          CLEAR     76  42  29 S14       29.89R
PROVO AIRPORT  CLEAR     73  45  35 S12       29.96R
SALT LAKE CITY PTCLDY    78  40  25 S14       29.89R
VERNAL         PTCLDY    60  41  49 NW3       30.05R
WENDOVER       PTCLDY    75  39  27 CALM      29.85S
HEBER CITY     CLEAR     55  43  62 CALM      30.05S
WEST JORDAN    CLEAR     72  39  30 S12       29.93S

$$

UTZ012>022-026-027-180700-

SOUTHERN UTAH

CITY           SKY/WX    TMP DP  RH WIND       PRES   REMARKS
BRYCE CANYON   CLEAR     48  44  86 W6        30.23F
CEDAR CITY     CLEAR     62  51  67 SW7       30.05F
MILFORD        CLEAR     69  48  47 SW13      29.99F
MOAB/CYNLANDS  CLEAR     70  46  42 E6        29.97S
PRICE          CLEAR     65  35  33 N9        30.08S
ST GEORGE      CLEAR     75  55  50 E9        29.88S
KANAB            N/A     63  46  55 NE3       30.06S

$$

REGIONAL REPORTS     COLORADO/ARIZONA

CITY           SKY/WX    TMP DP  RH WIND       PRES   REMARKS
CRAIG, CO      CLEAR     47  39  74 CALM      30.14S
GRAND JUNCTION CLEAR     64  38  38 CALM      30.01R
RIFLE          CLEAR     61  39  44 S3        30.08R
MONTROSE       CLEAR     65  43  44 SE10      30.11S
CORTEZ         CLEAR     52  49  89 E3        30.15F
PAGE, AZ       CLEAR     75  51  43 S5        29.98F
GRAND CANYON   CLEAR     51  46  83 CALM      30.16S
KINGMAN        CLEAR     70  61  73 SE7       29.93R
FLAGSTAFF      CLEAR     52  50  93 CALM      30.17F

$$

REGIONAL REPORTS    NEVADA/IDAHO/WYOMING

CITY           SKY/WX    TMP DP  RH WIND       PRES   REMARKS
LAS VEGAS, NV  CLEAR     88  58  36 S15       29.75S
ELY            CLEAR     63  44  50 S12       30.05F
ELKO           PTCLDY    68  45  43 CALM      29.89S
POCATELLO, ID  CLEAR     78  38  23 S12       29.86F
BURLEY         CLOUDY    74  48  39 S5        29.83F
EVANSTON, WY   PTCLDY    63  38  39 S6        30.15S
ROCK SPRINGS   CLEAR     61  35  37 CALM      30.14S

$$



USA.gov is the U.S. government's official web portal to all federal, state and local government web resources and services.